Northeast Philadelphia, PA

9:34 PM EDT on April 23, 2018 (GMT -0400)
Northeast Philadelphia

Weather History for KPNE - February, 2013

Change the Weather History Date:

Monday, February 25, 2013

  Actual Average Record
Temperature  
Mean Temperature 37 °F -  
Max Temperature 44 °F 44 °F 73 °F (2017)
Min Temperature 30 °F 28 °F 14 °F (2015)
Degree Days  
Heating Degree Days 28    
Moisture  
Dew Point 23 °F    
Average Humidity 59    
Maximum Humidity 79    
Minimum Humidity 45    
Precipitation  
Precipitation 0.00 in - - ()
Sea Level Pressure  
Sea Level Pressure 30.17 in    
Wind  
Wind Speed 8 mph (NNW)    
Max Wind Speed 12 mph    
Max Gust Speed -    
Visibility 10 miles    
Events      
Averages and records for this station are not official NWS values.
T = Trace of Precipitation, MM = Missing Value Source: NWS Daily Summary

Daily Weather History Graph

Daily Weather History Graph

Search for Another Location

Airport or City:

Astronomy

Feb. 25, 2013 Rise Set
Actual Time 6:39 AM EST 5:47 PM EST
Civil Twilight 6:11 AM EST 6:14 PM EST
Nautical Twilight 5:40 AM EST 6:46 PM EST
Astronomical Twilight 5:08 AM EST 7:17 PM EST
Moon 5:58 PM EST (2/25) 6:07 AM EST (2/25)
Length of Visible Light 12h 03m
Length of Day
11h 08m
Full, 100% of the Moon is Illuminated
Feb 25
Full
Feb 25
Full
Mar 4
Last Quarter
Mar 11
New
Mar 19
First Quarter

Hourly Weather History & Observations

Time (EST) Temp. Windchill Dew Point Humidity Pressure Visibility Wind Dir Wind Speed Gust Speed Precip Events Conditions
12:54 AM 32.0 °F 23.6 °F 19.0 °F 59% 30.06 in 10.0 mi NW 10.4 mph - N/A   Clear
1:54 AM 30.9 °F 23.5 °F 19.0 °F 61% 30.07 in 10.0 mi WNW 8.1 mph - N/A   Clear
2:54 AM 30.9 °F 23.5 °F 19.0 °F 61% 30.07 in 10.0 mi NW 8.1 mph - N/A   Clear
3:54 AM 30.0 °F 24.1 °F 19.0 °F 64% 30.08 in 10.0 mi WNW 5.8 mph - N/A   Clear
4:54 AM 30.0 °F 24.1 °F 19.9 °F 66% 30.11 in 10.0 mi NW 5.8 mph - N/A   Clear
5:54 AM 30.0 °F 23.2 °F 19.9 °F 66% 30.12 in 10.0 mi NW 6.9 mph - N/A   Clear
6:54 AM 30.2 °F 24.3 °F 21.2 °F 69% 30.13 in 10.0 mi NW 5.8 mph - N/A   Clear
7:54 AM 33.1 °F 26.1 °F 21.9 °F 64% 30.16 in 10.0 mi NW 8.1 mph - N/A   Clear
8:54 AM 37.0 °F 29.3 °F 23.0 °F 57% 30.16 in 10.0 mi NNW 11.5 mph - N/A   Clear
9:54 AM 39.0 °F 32.8 °F 25.0 °F 57% 30.17 in 10.0 mi North 9.2 mph - N/A   Clear
10:54 AM 41.0 °F 34.3 °F 25.0 °F 53% 30.17 in 10.0 mi NNW 11.5 mph - N/A   Scattered Clouds
11:54 AM 42.1 °F 36.1 °F 25.0 °F 51% 30.19 in 10.0 mi NNE 10.4 mph - N/A   Overcast
12:54 PM 42.1 °F 36.1 °F 26.1 °F 53% 30.19 in 10.0 mi North 10.4 mph - N/A   Overcast
1:54 PM 44.1 °F 41.5 °F 26.1 °F 49% 30.18 in 10.0 mi Variable 4.6 mph - N/A   Overcast
2:54 PM 43.0 °F 37.2 °F 25.0 °F 49% 30.18 in 10.0 mi NNW 10.4 mph - N/A   Mostly Cloudy
3:54 PM 43.0 °F 38.2 °F 24.1 °F 47% 30.18 in 10.0 mi NNW 8.1 mph - N/A   Partly Cloudy
4:54 PM 44.1 °F 39.5 °F 24.1 °F 45% 30.18 in 10.0 mi NE 8.1 mph - N/A   Mostly Cloudy
5:54 PM 42.1 °F 36.6 °F 24.1 °F 49% 30.21 in 10.0 mi North 9.2 mph - N/A   Overcast
6:54 PM 37.9 °F - 23.0 °F 55% 30.23 in 10.0 mi Calm Calm - N/A   Mostly Cloudy
7:54 PM 37.9 °F 33.5 °F 25.0 °F 60% 30.25 in 10.0 mi NNE 5.8 mph - N/A   Overcast
8:54 PM 36.0 °F 33.3 °F 24.1 °F 62% 30.25 in 10.0 mi North 3.5 mph - N/A   Clear
9:54 PM 33.1 °F 30.0 °F 24.1 °F 70% 30.25 in 10.0 mi North 3.5 mph - N/A   Clear
10:54 PM 33.1 °F - 24.1 °F 70% 30.24 in 10.0 mi Calm Calm - N/A   Clear
11:54 PM 30.0 °F 25.2 °F 24.1 °F 79% 30.23 in 10.0 mi SSE 4.6 mph - N/A   Clear